Tracking 27097 objects as of 30-Mar-2023
HD Live streaming from Space Station
objects crossing your sky now

STARLINK-4086

Track STARLINK-4086 now!
10-day predictions
STARLINK-4086 is classified as:


NORAD ID: 52833
Int'l Code: 2022-062D
Perigee: 545.6 km
Apogee: 548.1 km
Inclination: 53.2 °
Period: 95.4 minutes
Semi major axis: 6917 km
RCS: Unknown
Launch date: June 17, 2022
Source: United States (US)
Launch site: AIR FORCE EASTERN TEST RANGE (AFETR)
Your satellite tracking list
Your tracking list is empty




NASA's NSSDC Master Catalog

Two Line Element Set (TLE):
1 52833U 22062D   23088.49982056  .00000211  00000-0  31346-4 0  9992
2 52833  53.2159 185.3253 0001790 105.0443 255.0748 15.08848236 43316
Source of the keplerian elements: AFSPC